Location: Wellington
(41.3000°S, 174.7830°E)
Time: 21:09:19
(UTC+12:00)

ADEOS Rocket - Pass Details

Date: 24 January 2019
Orbit: 859 x 1307 km, 98.7° (Epoch: 19 April)

Event Time Altitude Azimuth Distance (km) Brightness Sun altitude
Exits shadow 23:05:53 14° 338° (NNW) 2,276 4.6 -20.6°
Maximum altitude 23:10:08 35° 277° (W) 1,386 4.0 -21.0°
Drops below altitude 10° 23:15:10 10° 212° (SSW) 2,527 6.3 -21.6°
Sets 23:17:47 0° 202° (SSW) 3,481 7.3 -21.9°
